Regional Weather Roundup
Issued by NWS

Home | Current Version | Previous Version | Text Only | Print | Product List | Glossary Off
Versions: 1 2 3 4 5 6 7 8 9 10 11 12 13 14 15 16 17 18 19 20 21 22 23 24 25 26 27 28 29 30 31 32 33 34 35 36 37 38 39 40 41 42 43 44 45 46 47 48 49 50

000
ASUS43 KOAX 220910
RWRNE

WEATHER ROUNDUP FOR NEBRASKA
NATIONAL WEATHER SERVICE OMAHA NE
400 AM CDT TUE AUG 22 2017

NOTES: SATELLITE DATA IS BEING USED TO AUGMENT CLOUD COVER ABOVE
       12000 FEET.
       "FAIR" INDICATES FEW OR NO CLOUDS BELOW 12,000 FEET WITH NO
       SIGNIFICANT WEATHER AND/OR OBSTRUCTIONS TO VISIBILITY.


NEZ001>004-019>022-054>056-221000-
NEBRASKA PANHANDLE

CITY           SKY/WX    TMP DP  RH WIND       PRES   REMARKS
SCOTTSBLUFF    CLEAR     54  47  77 E7        30.26S
ALLIANCE       CLEAR     44  41  89 W6        30.25S
CHADRON        CLEAR     48  43  82 SW6       30.24R
GORDON         FAIR      46  42  88 CALM      30.24S
KIMBALL        CLEAR     53  47  80 CALM      30.31R
SIDNEY         CLEAR     54  50  86 E5        30.28R
$$

NEZ057>060-069>072-079>082-221000-
SOUTHWEST NEBRASKA

CITY           SKY/WX    TMP DP  RH WIND       PRES   REMARKS
NORTH PLATTE   PTCLDY    57  57 100 N5        30.20R
IMPERIAL       CLEAR     59  58  96 N5        30.22R
LEXINGTON      CLEAR     64  62  94 N7        30.15R FOG
MCCOOK         CLEAR     62  62 100 N9        30.16R
OGALLALA       CLEAR     61  58  91 NE5       30.24R
$$

NEZ005>010-023>029-035>040-094-221000-
NORTH CENTRAL NEBRASKA

CITY           SKY/WX    TMP DP  RH WIND       PRES   REMARKS
VALENTINE      CLEAR     51  45  79 SW3       30.19R
AINSWORTH      CLEAR     54  51  90 CALM      30.19R
BROKEN BOW     CLEAR     60  56  86 N8        30.16R
O`NEILL        CLEAR     56  54  92 N5        30.15R
ORD            CLEAR     61  56  83 N9        30.13R
THEDFORD       CLEAR     57  50  78 CALM      30.22R
$$

NEZ041-046>049-061>064-073>077-083>087-221000-
SOUTH CENTRAL NEBRASKA

CITY           SKY/WX    TMP DP  RH WIND       PRES   REMARKS
GRAND ISLAND   CLEAR     63  63 100 N9        30.10R
AURORA         CLEAR     62  62 100 N7        30.08R
HASTINGS       CLEAR     64  62  93 N8        30.10R
HEBRON         PTCLDY    67  65  93 NE6       30.05R
HOLDREGE       CLEAR     63  61  94 N8        30.12R
KEARNEY        CLEAR     64  62  93 N10       30.12R
YORK           CLEAR     63  63 100 CALM      30.08R
$$

NEZ011>018-030>034-042>045-221000-
NORTHEAST NEBRASKA

CITY           SKY/WX    TMP DP  RH WIND       PRES   REMARKS
NORFOLK        CLEAR     63  60  90 N10       30.08R
ALBION         CLEAR     62  62  98 N8        30.11R
BLAIR          LGT RAIN  64  64  98 W5        30.04R VSB 1/4
COLUMBUS       CLEAR     63  61  93 NW7       30.07R
FREMONT        CLEAR     61  61  99 NW3       30.05R
TEKAMAH        CLEAR     60  59  96 CALM      30.03R
WAYNE          CLEAR     62  60  91 N5        30.07R
$$

NEZ050>053-065>068-078-088>093-221000-
SOUTHEAST NEBRASKA

CITY           SKY/WX    TMP DP  RH WIND       PRES   REMARKS
LINCOLN        PTCLDY    65  64  97 N6        30.06R
OMAHA EPPLEY   MOCLDY    65  62  90 NW3       30.03R
BEATRICE       CLOUDY    67  66  97 N7        30.04R
FALLS CITY     CLOUDY    66  64  93 CALM      29.99S
NEBRASKA CITY  CLOUDY    65  65 100 CALM      30.04R FOG
PLATTSMOUTH    FOG       63  62  97 W3        30.04R VSB 3/4
$$

NEZ044-045-051>053-067-221000-
OMAHA AREA

CITY           SKY/WX    TMP DP  RH WIND       PRES   REMARKS
OMAHA EPPLEY   MOCLDY    65  62  90 NW3       30.03R
BLAIR          LGT RAIN  64  64  98 W5        30.04R VSB 1/4
FREMONT        CLEAR     61  61  99 NW3       30.05R
MILLARD        CLOUDY    66  65  96 CALM      30.03S
OFFUTT AFB     CLEAR     65  63  96 W6        30.03R
PLATTSMOUTH    FOG       63  62  97 W3        30.04R VSB 3/4
WAHOO          FAIR      64  63  97 CALM      30.05R
$$




USA.gov is the U.S. government's official web portal to all federal, state and local government web resources and services.